TimePDT,TemperatureF,Dew PointF,Humidity,Sea Level PressureIn,VisibilityMPH,Wind Direction,Wind SpeedMPH,Gust SpeedMPH,PrecipitationIn,Events,Conditions,WindDirDegrees,DateUTC
12:56 AM,46.9,12.9,25,30.11,10.0,North,12.7,-,N/A,,Clear,360,2013-10-04 07:56:00
1:56 AM,45.0,12.9,27,30.14,10.0,North,13.8,-,N/A,,Clear,350,2013-10-04 08:56:00
2:56 AM,46.0,14.0,28,30.13,10.0,North,11.5,19.6,N/A,,Clear,360,2013-10-04 09:56:00
3:56 AM,43.0,15.1,32,30.15,10.0,NW,8.1,-,N/A,,Clear,320,2013-10-04 10:56:00
4:56 AM,42.1,16.0,35,30.17,10.0,NNW,9.2,-,N/A,,Clear,340,2013-10-04 11:56:00
5:56 AM,39.0,15.1,38,30.21,10.0,NNW,6.9,-,N/A,,Clear,330,2013-10-04 12:56:00
6:56 AM,44.1,16.0,32,30.23,10.0,North,11.5,-,N/A,,Clear,350,2013-10-04 13:56:00
7:56 AM,46.0,16.0,30,30.26,10.0,NW,6.9,-,N/A,,Clear,310,2013-10-04 14:56:00
8:56 AM,51.1,17.1,26,30.27,10.0,North,16.1,24.2,N/A,,Clear,10,2013-10-04 15:56:00
9:56 AM,54.0,16.0,22,30.28,10.0,North,12.7,25.3,N/A,,Clear,360,2013-10-04 16:56:00
10:56 AM,57.9,15.1,19,30.27,10.0,North,12.7,19.6,N/A,,Clear,10,2013-10-04 17:56:00
11:56 AM,62.1,12.9,15,30.26,10.0,North,13.8,23.0,N/A,,Clear,360,2013-10-04 18:56:00
12:56 PM,64.0,10.0,12,30.22,10.0,North,11.5,-,N/A,,Clear,10,2013-10-04 19:56:00
1:56 PM,64.9,7.0,10,30.18,10.0,Variable,5.8,-,N/A,,Clear,0,2013-10-04 20:56:00
2:56 PM,68.0,3.9,8,30.16,10.0,NW,9.2,-,N/A,,Clear,320,2013-10-04 21:56:00
3:56 PM,70.0,1.9,7,30.16,10.0,North,6.9,-,N/A,,Clear,350,2013-10-04 22:56:00
4:56 PM,70.0,1.9,7,30.16,10.0,North,6.9,-,N/A,,Clear,10,2013-10-04 23:56:00
5:56 PM,64.9,5.0,9,30.18,10.0,North,10.4,-,N/A,,Clear,360,2013-10-05 00:56:00
6:56 PM,55.9,8.1,15,30.21,10.0,North,9.2,-,N/A,,Clear,10,2013-10-05 01:56:00
7:56 PM,52.0,10.9,19,30.24,10.0,North,9.2,-,N/A,,Clear,10,2013-10-05 02:56:00
8:56 PM,52.0,10.0,19,30.26,10.0,Calm,Calm,-,N/A,,Clear,0,2013-10-05 03:56:00
9:56 PM,53.1,10.9,19,30.27,10.0,North,12.7,-,N/A,,Clear,350,2013-10-05 04:56:00
10:56 PM,46.9,10.9,23,30.30,10.0,NW,5.8,-,N/A,,Clear,310,2013-10-05 05:56:00
11:56 PM,43.0,10.9,27,30.30,10.0,NW,10.4,-,N/A,,Clear,320,2013-10-05 06:56:00